• Join FlightAware (Why Join?)
  • Login
  • US Flag 
01:33PM EDT


 

Airport Tracker/Info


-or-


 

Live Flight TrackerFlight Track Log ✈ SWA1533 ✈ 08-Apr-2013 ✈ KBWI - KPHX

Flight Track Log - Related Links

Times and Time Zones

All times are in EDT time to prevent confusion due to time zone crossing. See the SWA1533 flight status page for this flight to view local times or setup timezone preferences in your user account.

Time Position Orientation Groundspeed Altitude Reporting Facility
EDT Latitude Longitude Course Direction KTS MPH feet Rate Location/Type
09:13PM 39.1500 -76.7167 270° West 200 230 3,800  Level Potomac TRACON
09:14PM 39.1667 -76.7833 288° West 220 253 6,800 3,120 Climbing Potomac TRACON
09:15PM 39.2000 -76.8667 297° West 250 288 10,100 3,300 Climbing Potomac TRACON
09:16PM 39.2167 -76.9500 284° West 261 300 13,400 2,160 Climbing Potomac TRACON
09:17PM 39.1056 -77.2272 211° Southwest  Level FlightAware Approximate
09:18PM 39.1553 -77.1708 250° West 316 364 16,800  Level Washington Center
09:19PM 39.1222 -77.2906 250° West 350 403 19,800 2,880 Climbing Washington Center
09:20PM 39.0911 -77.4261 254° West 377 434 22,600 2,700 Climbing Washington Center
09:21PM 39.0722 -77.5756 261° West 392 451 25,300 2,280 Climbing Washington Center
09:22PM 39.0531 -77.7139 260° West 397 457 27,200 2,160 Climbing Washington Center
09:23PM 39.0317 -77.8550 259° West 403 464 29,700 2,100 Climbing Washington Center
09:24PM 39.0150 -77.9692 259° West 414 476 31,400 2,040 Climbing Washington Center
09:25PM 38.9928 -78.1369 260° West 408 470 33,800 2,160 Climbing Washington Center
09:26PM 38.9753 -78.2697 260° West 398 458 35,800 1,800 Climbing Washington Center
09:27PM 38.9558 -78.3972 259° West 387 445 37,500 1,080 Climbing Washington Center
09:28PM 38.9381 -78.5247 260° West 376 433 38,000 240 Climbing Washington Center
09:29PM 38.9183 -78.6492 259° West 370 426 38,000  Level Washington Center
09:30PM 38.9003 -78.7792 260° West 370 426 38,000  Level Washington Center
09:31PM 38.8803 -78.9064 259° West 370 426 38,000  Level Washington Center
09:32PM 38.8619 -79.0336 260° West 370 426 38,000  Level Washington Center
09:33PM 38.8417 -79.1631 259° West 370 426 38,000  Level Washington Center
09:34PM 38.8336 -79.2906 265° West 370 426 38,000  Level Washington Center
09:35PM 38.8319 -79.4131 269° West 364 419 38,000  Level Washington Center
09:36PM 38.8278 -79.5383 268° West 364 419 38,000  Level Washington Center
09:37PM 38.8339 -79.6719 273° West 371 427 38,000  Level Washington Center
09:38PM 38.8322 -79.7811 269° West 360 414 38,000  Level Washington Center
09:39PM 38.8278 -79.9061 267° West 355 409 38,000  Level Washington Center
09:40PM 38.8253 -80.0258 269° West 350 403 38,000  Level Washington Center
09:41PM 38.8203 -80.1614 267° West 344 396 38,000  Level Washington Center
09:42PM 38.8169 -80.2431 267° West 343 395 38,000  Level Indianapolis Center
09:43PM 38.8133 -80.3675 268° West 347 399 38,000  Level Indianapolis Center
09:44PM 38.8103 -80.4925 268° West 351 404 38,000  Level Indianapolis Center
09:45PM 38.8067 -80.6194 268° West 355 409 38,000  Level Indianapolis Center
09:46PM 38.8017 -80.7461 267° West 358 412 38,000  Level Indianapolis Center
09:47PM 38.7978 -80.8736 268° West 360 414 38,000  Level Indianapolis Center
09:48PM 38.7933 -81.0000 267° West 356 410 38,000  Level Indianapolis Center
09:49PM 38.7897 -81.1264 268° West 356 410 38,000  Level Indianapolis Center
09:50PM 38.7839 -81.2775 267° West 354 407 38,000  Level Indianapolis Center
09:51PM 38.7803 -81.4025 268° West 353 406 38,000  Level Indianapolis Center
09:52PM 38.7747 -81.5239 267° West 353 406 38,000  Level Indianapolis Center
09:53PM 38.7700 -81.6481 267° West 351 404 38,000  Level Indianapolis Center
09:54PM 38.7658 -81.7714 268° West 355 409 38,000  Level Indianapolis Center
09:55PM 38.7603 -81.8950 267° West 351 404 38,000  Level Indianapolis Center
09:56PM 38.7556 -82.0192 267° West 350 403 38,000  Level Indianapolis Center
09:57PM 38.7492 -82.1686 267° West 350 403 38,000  Level Indianapolis Center
09:58PM 38.7450 -82.2919 268° West 348 400 38,000  Level Indianapolis Center
09:59PM 38.7394 -82.4164 267° West 351 404 38,000  Level Indianapolis Center
10:00PM 38.7350 -82.5400 267° West 349 402 38,000  Level Indianapolis Center
10:01PM 38.7289 -82.6636 266° West 350 403 38,000  Level Indianapolis Center
10:02PM 38.7242 -82.7889 267° West 351 404 38,000  Level Indianapolis Center
10:03PM 38.7186 -82.9150 267° West 354 407 38,000  Level Indianapolis Center
10:04PM 38.7133 -83.0400 267° West 353 406 38,000  Level Indianapolis Center
10:05PM 38.7067 -83.1811 267° West 356 410 38,000  Level Indianapolis Center
10:06PM 38.7006 -83.3078 267° West 354 407 38,000  Level Indianapolis Center
10:07PM 38.6944 -83.4364 267° West 356 410 38,000  Level Indianapolis Center
10:08PM 38.6878 -83.5644 266° West 358 412 38,000  Level Indianapolis Center
10:09PM 38.6822 -83.6914 267° West 355 409 38,000  Level Indianapolis Center
10:10PM 38.6753 -83.8194 266° West 356 410 38,000  Level Indianapolis Center
10:11PM 38.6686 -83.9444 266° West 353 406 38,000  Level Indianapolis Center
10:12PM 38.6622 -84.0708 266° West 351 404 38,000  Level Indianapolis Center
10:13PM 38.6558 -84.1967 266° West 353 406 38,000  Level Indianapolis Center
10:14PM 38.6500 -84.3228 267° West 352 405 38,000  Level Indianapolis Center
10:15PM 38.6578 -84.4500 275° West 354 407 38,000  Level Indianapolis Center
10:16PM 38.6642 -84.5767 274° West 360 414 38,000  Level Indianapolis Center
10:17PM 38.6719 -84.7050 274° West 360 414 38,000  Level Indianapolis Center
10:18PM 38.6797 -84.8339 274° West 362 417 38,000  Level Indianapolis Center
10:19PM 38.6867 -84.9619 274° West 359 413 38,000  Level Indianapolis Center
10:20PM 38.6939 -85.0903 274° West 359 413 38,000  Level Indianapolis Center
10:21PM 38.7008 -85.2183 274° West 358 412 38,000  Level Indianapolis Center
10:22PM 38.7069 -85.3461 274° West 357 411 38,000  Level Indianapolis Center
10:23PM 38.7144 -85.4733 274° West 356 410 38,000  Level Indianapolis Center
10:24PM 38.7208 -85.6011 274° West 356 410 38,000 240 Level Indianapolis Center
10:25PM 38.7364 -85.7272 279° West 355 409 38,500 720 Climbing Indianapolis Center
10:26PM 38.7636 -85.8494 286° West 354 407 39,500 720 Climbing Indianapolis Center
10:27PM 38.7886 -85.9714 285° West 356 410 40,000 240 Climbing Indianapolis Center
10:28PM 38.8003 -86.0994 277° West 360 414 40,000  Level Indianapolis Center
10:29PM 38.8056 -86.2297 273° West 367 422 40,000  Level Indianapolis Center
10:30PM 38.8114 -86.3597 273° West 365 420 40,000  Level Indianapolis Center
10:31PM 38.8083 -86.4906 268° West 369 425 40,000  Level Indianapolis Center
10:32PM 38.7975 -86.6464 265° West 367 422 40,000  Level Indianapolis Center
10:33PM 38.7897 -86.7769 266° West 367 422 40,000  Level Indianapolis Center
10:34PM 38.7817 -86.9061 265° West 366 421 40,000  Level Indianapolis Center
10:35PM 38.7733 -87.0353 265° West 366 421 40,000  Level Indianapolis Center
10:36PM 38.7658 -87.1642 266° West 365 420 40,000  Level Indianapolis Center
10:37PM 38.7575 -87.2925 265° West 363 418 40,000  Level Indianapolis Center
10:38PM 38.7486 -87.4183 265° West 358 412 40,000  Level Indianapolis Center
10:39PM 38.7408 -87.5456 266° West 359 413 40,000  Level Indianapolis Center
10:41PM 38.7317 -87.6747 265° West 363 418 40,000  Level Indianapolis Center
10:42PM 38.7231 -87.8047 265° West 365 420 40,000  Level Indianapolis Center
10:43PM 38.7142 -87.9375 265° West 372 428 40,000  Level Indianapolis Center
10:43PM 38.7103 -87.9911 265° West 369 425 40,000  Level Kansas City Center
10:44PM 38.6986 -88.1464 265° West 367 422 40,000  Level Kansas City Center
10:45PM 38.6892 -88.2769 265° West 368 423 40,000  Level Kansas City Center
10:46PM 38.6789 -88.4064 264° West 367 422 40,000  Level Kansas City Center
10:47PM 38.6692 -88.5356 265° West 366 421 40,000  Level Kansas City Center
10:48PM 38.6594 -88.6614 264° West 362 417 40,000  Level Kansas City Center
10:49PM 38.6503 -88.7922 265° West 365 420 40,000  Level Kansas City Center
10:50PM 38.6406 -88.9208 265° West 365 420 40,000  Level Kansas City Center
10:51PM 38.6275 -89.0678 264° West 368 423 40,000  Level Kansas City Center
10:52PM 38.6186 -89.1972 265° West 366 421 40,000  Level Kansas City Center
10:53PM 38.6069 -89.3272 263° West 368 423 40,000  Level Kansas City Center
10:54PM 38.5967 -89.4558 264° West 365 420 40,000  Level Kansas City Center
10:55PM 38.5853 -89.5842 264° West 364 419 40,000  Level Kansas City Center
10:56PM 38.5767 -89.6956 264° West 362 417 40,000  Level Kansas City Center
10:57PM 38.5656 -89.8256 264° West 365 420 40,000  Level Kansas City Center
10:58PM 38.5511 -89.9806 263° West 367 422 40,000  Level Kansas City Center
10:59PM 38.5400 -90.1114 264° West 368 423 40,000  Level Kansas City Center
11:00PM 38.5272 -90.2414 263° West 367 422 40,000  Level Kansas City Center
11:01PM 38.5150 -90.3742 263° West 370 426 40,000  Level Kansas City Center
11:02PM 38.5031 -90.5142 264° West 370 426 40,000  Level Kansas City Center
11:03PM 38.4897 -90.6467 263° West 375 432 40,000  Level Kansas City Center
11:04PM 38.4778 -90.7719 263° West 374 430 40,000  Level Kansas City Center
11:05PM 38.4650 -90.9058 263° West 377 434 40,000  Level Kansas City Center
11:06PM 38.4533 -91.0361 264° West 374 430 40,000  Level Kansas City Center
11:07PM 38.4400 -91.1683 263° West 375 432 40,000  Level Kansas City Center
11:08PM 38.4281 -91.2978 263° West 372 428 40,000  Level Kansas City Center
11:09PM 38.4147 -91.4339 263° West 369 425 40,000  Level Kansas City Center
11:10PM 38.4011 -91.5650 262° West 372 428 40,000  Level Kansas City Center
11:11PM 38.3894 -91.6956 264° West 372 428 40,000  Level Kansas City Center
11:12PM 38.3750 -91.8250 262° West 370 426 40,000  Level Kansas City Center
11:14PM 38.3606 -91.9572 262° West 376 433 40,000  Level Kansas City Center
11:15PM 38.3464 -92.0883 262° West 376 433 40,000  Level Kansas City Center
11:16PM 38.3325 -92.2206 262° West 379 436 40,000  Level Kansas City Center
11:17PM 38.3150 -92.3808 262° West 384 442 40,000  Level Kansas City Center
11:18PM 38.3011 -92.5153 263° West 386 444 40,000  Level Kansas City Center
11:19PM 38.2853 -92.6497 262° West 387 445 40,000  Level Kansas City Center
11:20PM 38.2703 -92.7844 262° West 388 447 40,000  Level Kansas City Center
11:21PM 38.2550 -92.9197 262° West 386 444 40,000  Level Kansas City Center
11:22PM 38.2389 -93.0547 261° West 387 445 40,000  Level Kansas City Center
11:23PM 38.2236 -93.1894 262° West 388 447 40,000  Level Kansas City Center
11:24PM 38.2078 -93.3253 262° West 388 447 40,000  Level Kansas City Center
11:25PM 38.1917 -93.4589 261° West 385 443 40,000  Level Kansas City Center
11:26PM 38.1753 -93.5933 261° West 384 442 40,000  Level Kansas City Center
11:27PM 38.1583 -93.7264 261° West 382 440 40,000  Level Kansas City Center
11:28PM 38.1425 -93.8589 261° West 381 438 40,000  Level Kansas City Center
11:29PM 38.1233 -94.0194 261° West 381 438 40,000  Level Kansas City Center
11:30PM 38.1083 -94.1439 261° West 384 442 40,000  Level Kansas City Center
11:31PM 38.0914 -94.2728 261° West 386 444 40,000  Level Kansas City Center
11:32PM 38.0731 -94.4225 261° West 385 443 40,000  Level Kansas City Center
11:33PM 38.0567 -94.5506 261° West 383 441 40,000  Level Kansas City Center
11:34PM 38.0394 -94.6803 260° West 387 445 40,000  Level Kansas City Center
11:35PM 38.0203 -94.8294 261° West 383 441 40,000  Level Kansas City Center
11:36PM 38.0031 -94.9539 260° West 379 436 40,000  Level Kansas City Center
11:37PM 37.9867 -95.0800 261° West 378 435 40,000  Level Kansas City Center
11:38PM 37.9664 -95.2292 260° West 380 437 40,000  Level Kansas City Center
11:39PM 37.9506 -95.3519 261° West 371 427 40,000  Level Kansas City Center
11:40PM 37.9344 -95.4683 260° West 367 422 40,000  Level Kansas City Center
11:41PM 37.9131 -95.6211 260° West 366 421 40,000  Level Kansas City Center
11:42PM 37.8956 -95.7514 260° West 371 427 40,000  Level Kansas City Center
11:43PM 37.8767 -95.8833 260° West 378 435 40,000  Level Kansas City Center
11:44PM 37.8589 -96.0128 260° West 374 430 40,000  Level Kansas City Center
11:45PM 37.8419 -96.1297 260° West 376 433 40,000  Level Kansas City Center
11:46PM 37.8239 -96.2606 260° West 377 434 40,000  Level Kansas City Center
11:47PM 37.8053 -96.3906 260° West 377 434 40,000  Level Kansas City Center
11:48PM 37.7856 -96.5217 259° West 379 436 40,000  Level Kansas City Center
11:49PM 37.7631 -96.6781 260° West 378 435 40,000  Level Kansas City Center
11:50PM 37.7439 -96.8086 260° West 377 434 40,000  Level Kansas City Center
11:51PM 37.7242 -96.9369 259° West 374 430 40,000  Level Kansas City Center
11:52PM 37.7050 -97.0697 260° West 372 428 40,000  Level Kansas City Center
11:53PM 37.6858 -97.1928 259° West 369 425 40,000  Level Kansas City Center
11:54PM 37.6664 -97.3203 259° West 368 423 40,000  Level Kansas City Center
11:55PM 37.6475 -97.4478 259° West 369 425 40,000  Level Kansas City Center
11:56PM 37.6267 -97.5775 259° West 373 429 40,000  Level Kansas City Center
11:57PM 37.6058 -97.7075 259° West 376 433 40,000  Level Kansas City Center
11:58PM 37.5853 -97.8381 259° West 376 433 40,000 -180 Level Kansas City Center
11:59PM 37.5644 -97.9697 259° West 379 436 39,700 -660 Descending Kansas City Center
12:00AM 37.5442 -98.0989 259° West 376 433 38,700 -840 Descending Kansas City Center
12:01AM 37.5228 -98.2278 258° West 374 430 38,000 -360 Descending Kansas City Center
12:02AM 37.5014 -98.3558 258° West 373 429 38,000  Level Kansas City Center
12:03AM 37.4811 -98.4853 259° West 375 432 38,000  Level Kansas City Center
12:04AM 37.4597 -98.6153 258° West 377 434 38,000  Level Kansas City Center
12:05AM 37.4386 -98.7444 258° West 377 434 38,000  Level Kansas City Center
12:06AM 37.4164 -98.8728 258° West 376 433 38,000  Level Kansas City Center
12:07AM 37.3950 -99.0031 258° West 378 435 38,000  Level Kansas City Center
12:08AM 37.3719 -99.1333 257° West 382 440 38,000  Level Kansas City Center
12:09AM 37.3481 -99.2653 257° West 385 443 38,000  Level Kansas City Center
12:10AM 37.3214 -99.4256 258° West 389 448 38,000  Level Kansas City Center
12:11AM 37.2983 -99.5644 258° West 389 448 38,000  Level Kansas City Center
12:12AM 37.2756 -99.6928 257° West 392 451 38,000  Level Kansas City Center
12:13AM 37.2528 -99.8208 257° West 393 452 38,000  Level Kansas City Center
12:14AM 37.2258 -99.9692 257° West 391 450 38,000  Level Kansas City Center
12:15AM 37.2036 -100.0967 258° West 390 449 38,000  Level Kansas City Center
12:16AM 37.1800 -100.2242 257° West 391 450 38,000  Level Kansas City Center
12:18AM 37.1550 -100.3692 258° West 384 442 38,000  Level Kansas City Center
12:19AM 37.1328 -100.4939 257° West 382 440 38,000  Level Kansas City Center
12:20AM 37.1100 -100.6150 257° West 376 433 38,000  Level Kansas City Center
12:21AM 37.0833 -100.7592 257° West 378 435 38,000  Level Kansas City Center
12:22AM 37.0611 -100.8806 257° West 375 432 38,000  Level Kansas City Center
12:23AM 37.0356 -101.0025 255° West 375 432 38,000  Level Kansas City Center
12:24AM 36.9992 -101.1156 248° West 368 423 38,000  Level Kansas City Center
12:25AM 36.9586 -101.2469 249° West 365 420 38,000  Level Kansas City Center
12:26AM 36.9219 -101.3600 248° West 365 420 38,000  Level Kansas City Center
12:26AM 36.8869 -101.4747 249° West 368 423 38,000  Level Albuquerque Center
12:27AM 36.8508 -101.5867 248° West 365 420 38,000  Level Albuquerque Center
12:28AM 36.8156 -101.6994 249° West 365 420 38,000  Level Albuquerque Center
12:30AM 36.7739 -101.8311 248° West 364 419 38,000  Level Albuquerque Center
12:31AM 36.7369 -101.9450 248° West 369 425 38,000  Level Albuquerque Center
12:32AM 36.7017 -102.0572 249° West 366 421 38,000  Level Albuquerque Center
12:33AM 36.6589 -102.1906 248° West 369 425 38,000  Level Albuquerque Center
12:34AM 36.6194 -102.3106 248° West 368 423 38,000  Level Albuquerque Center
12:35AM 36.5806 -102.4283 248° West 369 425 38,000  Level Albuquerque Center
12:36AM 36.5422 -102.5469 248° West 371 427 38,000  Level Albuquerque Center
12:37AM 36.5039 -102.6653 248° West 372 428 38,000  Level Albuquerque Center
12:38AM 36.4650 -102.7819 248° West 369 425 38,000  Level Albuquerque Center
12:39AM 36.4272 -102.9006 248° West 366 421 38,000  Level Albuquerque Center
12:40AM 36.3889 -103.0172 248° West 365 420 38,000  Level Albuquerque Center
12:41AM 36.3489 -103.1314 247° West 359 413 38,000  Level Albuquerque Center
12:42AM 36.3111 -103.2472 248° West 359 413 38,000  Level Albuquerque Center
12:43AM 36.2731 -103.3656 248° West 365 420 38,000  Level Albuquerque Center
12:44AM 36.2333 -103.4803 247° West 361 415 38,000  Level Albuquerque Center
12:45AM 36.1950 -103.5967 248° West 362 417 38,000  Level Albuquerque Center
12:46AM 36.1556 -103.7100 247° West 359 413 38,000  Level Albuquerque Center
12:47AM 36.1150 -103.8236 246° West 359 413 38,000  Level Albuquerque Center
12:48AM 36.0744 -103.9400 247° West 363 418 38,000  Level Albuquerque Center
12:49AM 36.0356 -104.0558 247° West 363 418 38,000  Level Albuquerque Center
12:50AM 35.9961 -104.1711 247° West 364 419 38,000  Level Albuquerque Center
12:51AM 35.9558 -104.2850 246° West 361 415 38,000  Level Albuquerque Center
12:52AM 35.9161 -104.3978 247° West 359 413 38,000  Level Albuquerque Center
12:53AM 35.8781 -104.5103 247° West 356 410 38,000  Level Albuquerque Center
12:54AM 35.8383 -104.6247 247° West 359 413 38,000  Level Albuquerque Center
12:55AM 35.7972 -104.7375 246° West 360 414 38,000  Level Albuquerque Center
12:56AM 35.7581 -104.8503 247° West 359 413 38,000  Level Albuquerque Center
12:57AM 35.7175 -104.9636 246° West 360 414 38,000  Level Albuquerque Center
12:58AM 35.6772 -105.0753 246° West 357 411 38,000  Level Albuquerque Center
12:59AM 35.6442 -105.1933 251° West 362 417 38,000  Level Albuquerque Center
01:00AM 35.6225 -105.3203 258° West 375 432 38,000  Level Albuquerque Center
01:01AM 35.5986 -105.4436 257° West 372 428 38,000  Level Albuquerque Center
01:02AM 35.5789 -105.5689 259° West 371 427 38,000  Level Albuquerque Center
01:03AM 35.5544 -105.6953 257° West 375 432 38,000  Level Albuquerque Center
01:04AM 35.5308 -105.8261 258° West 386 444 38,000  Level Albuquerque Center
01:05AM 35.5086 -105.9558 258° West 393 452 38,000  Level Albuquerque Center
01:06AM 35.4811 -106.0869 256° West 388 447 38,000  Level Albuquerque Center
01:07AM 35.4592 -106.2069 257° West 377 434 38,000  Level Albuquerque Center
01:08AM 35.4369 -106.3314 258° West 375 432 38,000  Level Albuquerque Center
01:09AM 35.4128 -106.4572 257° West 378 435 38,000  Level Albuquerque Center
01:10AM 35.3881 -106.5839 257° West 383 441 38,000  Level Albuquerque Center
01:11AM 35.3633 -106.7308 258° West 378 435 38,000  Level Albuquerque Center
01:12AM 35.3389 -106.8531 256° West 383 441 38,000  Level Albuquerque Center
01:13AM 35.3069 -106.9967 255° West 388 447 38,000  Level Albuquerque Center
01:14AM 35.2836 -107.1186 257° West 385 443 38,000  Level Albuquerque Center
01:15AM 35.2600 -107.2417 257° West 392 451 38,000  Level Albuquerque Center
01:16AM 35.2347 -107.3669 256° West 387 445 38,000 -600 Level Albuquerque Center
01:17AM 35.2097 -107.4922 256° West 382 440 36,900 -1,440 Descending Albuquerque Center
01:18AM 35.1836 -107.6231 256° West 375 432 35,100 -1,800 Descending Albuquerque Center
01:19AM 35.1572 -107.7508 256° West 395 455 33,300 -1,440 Descending Albuquerque Center
01:20AM 35.1272 -107.8950 256° West 394 453 32,200 -660 Descending Albuquerque Center
01:21AM 35.1033 -108.0153 256° West 384 442 32,000 -120 Descending Albuquerque Center
01:22AM 35.0781 -108.1381 256° West 386 444 32,000  Level Albuquerque Center
01:23AM 35.0419 -108.2725 252° West 375 432 32,000  Level Albuquerque Center
01:24AM 35.0008 -108.3878 247° West 381 438 32,000  Level Albuquerque Center
01:25AM 34.9603 -108.5017 247° West 381 438 32,000  Level Albuquerque Center
01:26AM 34.9211 -108.6147 247° West 380 437 32,000  Level Albuquerque Center
01:27AM 34.8733 -108.7461 246° West 379 436 32,000  Level Albuquerque Center
01:28AM 34.8331 -108.8597 247° West 381 438 32,000  Level Albuquerque Center
01:29AM 34.7922 -108.9733 246° West 381 438 32,000  Level Albuquerque Center
01:30AM 34.7442 -109.1075 246° West 386 444 32,000  Level Albuquerque Center
01:31AM 34.7019 -109.2236 246° West 390 449 32,000  Level Albuquerque Center
01:32AM 34.6603 -109.3367 246° West 386 444 32,000  Level Albuquerque Center
01:33AM 34.6097 -109.4692 245° Southwest 387 445 32,000 -360 Level Albuquerque Center
01:34AM 34.5672 -109.5833 246° West 385 443 31,300 -900 Descending Albuquerque Center
01:35AM 34.5247 -109.7017 246° West 392 451 30,300 -1,440 Descending Albuquerque Center
01:36AM 34.4808 -109.8189 246° West 398 458 28,500 -1,980 Descending Albuquerque Center
01:37AM 34.4339 -109.9519 247° West 390 449 26,400 -1,260 Descending Albuquerque Center
01:38AM 34.3919 -110.0619 245° Southwest 381 438 26,000 -240 Descending Albuquerque Center
01:39AM 34.3533 -110.1650 246° West 362 417 26,000  Level Albuquerque Center
01:40AM 34.3078 -110.2864 246° West 355 409 26,000  Level Albuquerque Center
01:41AM 34.2692 -110.3931 246° West 364 419 26,000  Level Albuquerque Center
01:42AM 34.2239 -110.5067 244° Southwest 375 432 26,000  Level Albuquerque Center
01:43AM 34.1811 -110.6172 245° Southwest 371 427 26,000 -180 Level Albuquerque Center
01:44AM 34.1369 -110.7369 246° West 370 426 25,700 -1,260 Descending Albuquerque Center
01:45AM 34.0953 -110.8456 245° Southwest 362 417 23,500 -2,280 Descending Albuquerque Center
01:46AM 34.0553 -110.9503 245° Southwest 349 402 21,200 -2,280 Descending Albuquerque Center
01:47AM 34.0161 -111.0536 245° Southwest 342 394 19,000 -2,340 Descending Albuquerque Center
01:48AM 33.9772 -111.1578 246° West 341 392 16,500 -1,800 Descending Albuquerque Center
01:49AM 33.9200 -111.2433 231° Southwest 331 381 15,400 -1,500 Descending Albuquerque Center
01:50AM 33.8567 -111.3189 225° Southwest 321 369 13,500 -1,980 Descending Albuquerque Center
01:51AM 33.7961 -111.3922 225° Southwest 309 356 11,500 -1,260 Descending Albuquerque Center
01:52AM 33.7408 -111.4583 225° Southwest 280 322 11,000 -1,080 Descending Albuquerque Center
01:53AM 33.6917 -111.5161 224° Southwest 250 288 9,400 -1,020 Descending Albuquerque Center
01:54AM 33.6392 -111.5786 225° Southwest 261 300 9,000 -300 Descending Albuquerque Center
01:55AM 33.5922 -111.6356 225° Southwest 243 280 8,800 -1,020 Descending Albuquerque Center
01:56AM 33.5442 -111.6958 226° Southwest 251 289 7,000 -1,320 Descending Albuquerque Center
01:57AM 33.5011 -111.7533 228° Southwest 232 267 6,200 -1,020 Descending Albuquerque Center
01:58AM 33.4642 -111.8042 229° Southwest 204 235 5,000 -1,200 Descending Albuquerque Center
01:59AM 33.4325 -111.8517 231° Southwest 186 214 3,800 -1,200 Descending Albuquerque Center
02:00AM 33.4308 -111.9033 268° West 157 181 2,600 -960 Descending Albuquerque Center
02:01AM 33.4314 -111.9494 271° West 142 163 1,900 -780 Descending Albuquerque Center
02:02AM 33.4308 -112.0017 269° West 142 163 1,100 -840 Descending Albuquerque Center
02:04AM 33.4333 -112.0000 248° West  Level FlightAware Approximate